Galveston, TX

4:00 PM CDT on June 26, 2017 (GMT -0500)
Scholes International At Galveston

Weather History for KGLS - November, 2011

Change the Weather History Date:

Monday, November 21, 2011

  Actual Average Record
Temperature  
Mean Temperature 76 °F 63 °F  
Max Temperature 79 °F 70 °F 81 °F (2004)
Min Temperature 72 °F 57 °F 36 °F (1906)
Degree Days  
Heating Degree Days 0 4  
Month to date heating degree days 23 48  
Since 1 July heating degree days 32 57  
Cooling Degree Days 11 2  
Month to date cooling degree days 126 82  
Year to date cooling degree days 3883 3274  
Growing Degree Days 24 (Base 50)    
Moisture  
Dew Point 72 °F    
Average Humidity 90    
Maximum Humidity 100    
Minimum Humidity 79    
Precipitation  
Precipitation 0.00 in 0.14 in 2.97 in (1977)
Month to date precipitation 1.35 3.20  
Year to date precipitation 17.53 45.93  
Snow  
Snow 0.00 in - 0.00 in (2002)
Month to date snowfall 0.0  
Since 1 July snowfall 0.0  
Since 1 September snowfall 0.0  
Snow Depth 0.00 in    
Sea Level Pressure  
Sea Level Pressure 30.06 in    
Wind  
Wind Speed 13 mph (SE)    
Max Wind Speed 20 mph    
Max Gust Speed 23 mph    
Visibility 7 miles    
Events      
T = Trace of Precipitation, MM = Missing Value Source: NWS Daily Summary

Daily Weather History Graph

Daily Weather History Graph

Search for Another Location

Airport or City:

Trip Planner

Search our weather history database for the weather conditions in past years. The results will help you decide how hot, cold, wet, or windy it might be!

Date:

Astronomy

Nov. 21, 2011 Rise Set
Actual Time 6:47 AM CST 5:22 PM CST
Civil Twilight 6:22 AM CST 5:47 PM CST
Nautical Twilight 5:53 AM CST 6:16 PM CST
Astronomical Twilight 5:25 AM CST 6:45 PM CST
Moon 2:43 AM CST (11/21) 2:32 PM CST (11/21)
Length of Visible Light 11h 25m
Length of Day
10h 34m
Waning Crescent, 17% of the Moon is Illuminated
Nov 21
Waning Crescent
Nov 25
New
Dec 2
First Quarter
Dec 10
Full
Dec 17
Last Quarter

Hourly Weather History & Observations

Time (CST) Temp. Dew Point Humidity Pressure Visibility Wind Dir Wind Speed Gust Speed Precip Events Conditions
12:17 AM 71.6 °F 71.6 °F 100% 30.11 in 6.0 mi SE 10.4 mph - N/A   Overcast
12:30 AM 71.6 °F 71.6 °F 100% 30.11 in 7.0 mi SE 11.5 mph - N/A   Overcast
12:44 AM 73.4 °F 71.6 °F 94% 30.11 in 7.0 mi SE 13.8 mph - N/A   Overcast
12:52 AM 73.0 °F 71.1 °F 93% 30.11 in 7.0 mi SE 13.8 mph - N/A   Overcast
1:47 AM 71.6 °F 71.6 °F 100% 30.11 in 5.0 mi SE 9.2 mph - N/A   Overcast
1:52 AM 72.0 °F 71.1 °F 97% 30.11 in 5.0 mi SE 8.1 mph - N/A   Overcast
2:03 AM 71.6 °F 71.6 °F 100% 30.11 in 5.0 mi SE 6.9 mph - N/A   Overcast
2:31 AM 71.6 °F 71.6 °F 100% 30.11 in 5.0 mi SE 6.9 mph - N/A   Overcast
2:52 AM 72.0 °F 71.1 °F 97% 30.11 in 5.0 mi SE 8.1 mph - N/A   Overcast
3:52 AM 72.0 °F 71.1 °F 97% 30.11 in 5.0 mi SE 6.9 mph - N/A   Overcast
4:49 AM 71.6 °F 71.6 °F 100% 30.10 in 5.0 mi SE 10.4 mph - N/A   Overcast
4:52 AM 72.0 °F 71.1 °F 97% 30.10 in 5.0 mi SE 9.2 mph - N/A   Overcast
5:09 AM 71.6 °F 71.6 °F 100% 30.10 in 6.0 mi SE 8.1 mph - N/A   Overcast
5:52 AM 72.0 °F 71.1 °F 97% 30.11 in 6.0 mi SE 9.2 mph - N/A   Overcast
6:52 AM 72.0 °F 71.1 °F 97% 30.12 in 3.0 mi SE 9.2 mph - N/A   Overcast
7:52 AM 73.0 °F 72.0 °F 96% 30.12 in 3.0 mi SE 11.5 mph - N/A   Overcast
8:52 AM 73.9 °F 72.0 °F 93% 30.12 in 9.0 mi SE 13.8 mph - N/A   Overcast
9:02 AM 73.4 °F 71.6 °F 94% 30.12 in 9.0 mi SE 15.0 mph - N/A   Clear
9:52 AM 77.0 °F 73.0 °F 88% 30.13 in 10.0 mi SE 13.8 mph - N/A   Clear
10:52 AM 78.1 °F 72.0 °F 81% 30.12 in 8.0 mi SE 13.8 mph - N/A   Clear
11:52 AM 77.0 °F 72.0 °F 84% 30.10 in 8.0 mi SE 13.8 mph - N/A   Clear
12:52 PM 78.1 °F 72.0 °F 81% 30.06 in 8.0 mi SE 13.8 mph - N/A   Partly Cloudy
1:52 PM 78.1 °F 72.0 °F 81% 30.03 in 7.0 mi SE 13.8 mph - N/A   Partly Cloudy
2:52 PM 77.0 °F 72.0 °F 84% 30.02 in 7.0 mi SE 13.8 mph - N/A   Partly Cloudy
3:52 PM 75.9 °F 72.0 °F 87% 30.00 in 6.0 mi SE 15.0 mph - N/A   Scattered Clouds
4:52 PM 73.9 °F 71.1 °F 91% 30.01 in 5.0 mi SE 11.5 mph - N/A   Partly Cloudy
5:23 PM 73.4 °F 71.6 °F 94% 30.01 in 5.0 mi SE 11.5 mph - N/A   Mostly Cloudy
5:52 PM 73.9 °F 71.1 °F 91% 30.00 in 5.0 mi SE 13.8 mph - N/A   Overcast
6:19 PM 73.4 °F 71.6 °F 94% 29.99 in 5.0 mi SE 12.7 mph - N/A   Overcast
6:27 PM 73.4 °F 71.6 °F 94% 29.99 in 5.0 mi SE 13.8 mph - N/A   Overcast
6:52 PM 73.0 °F 71.1 °F 93% 29.99 in 5.0 mi SE 16.1 mph - N/A   Overcast
7:52 PM 73.0 °F 71.1 °F 93% 29.99 in 10.0 mi SE 12.7 mph - N/A   Overcast
8:52 PM 73.0 °F 71.1 °F 93% 29.97 in 10.0 mi SE 17.3 mph - N/A   Overcast
9:52 PM 73.0 °F 71.1 °F 93% 29.97 in 9.0 mi SSE 16.1 mph - N/A   Overcast
10:52 PM 73.0 °F 71.1 °F 93% 29.97 in 9.0 mi SE 16.1 mph - N/A   Overcast
11:00 PM 73.4 °F 71.6 °F 94% 29.96 in 9.0 mi SSE 16.1 mph - N/A   Overcast
11:33 PM 73.4 °F 71.6 °F 94% 29.96 in 8.0 mi SSE 16.1 mph - N/A   Overcast
11:52 PM 73.0 °F 71.1 °F 93% 29.97 in 9.0 mi SSE 13.8 mph - N/A   Overcast